Tracking 30400 objects as of 13-May-2025
HD Live streaming from Space Station
objects crossing your sky now

QIANFAN-79

Track QIANFAN-79 now!
10-day predictions
QIANFAN-79 is classified as:


NORAD ID: 63165
Int'l Code: 2025-046G
Perigee: 1,024.6 km
Apogee: 1,048.5 km
Inclination: 89.0 °
Period: 105.7 minutes
Semi major axis: 7407 km
RCS: Unknown
Launch date: March 11, 2025
Source: People's Republic of China (PRC)
Launch site: Wenchang Satellite Launch Center (WSC)
Your satellite tracking list
Your tracking list is empty




NASA's NSSDC Master Catalog

Two Line Element Set (TLE):
1 63165U 25046G   25132.90084705  .00000095  00000-0  10737-3 0  9999
2 63165  88.9836 342.1275 0016125  32.9890 327.2270 13.61729324 18498
Source of the keplerian elements: AFSPC